SKYSAT C2

导读

SKYSAT C2是美国发射的高分辨率光学遥感卫星,于2016年9月16日顺利进入太空。该卫星隶属于SkySat系列卫星星座,具备获取亚米级分辨率地球影像的能力,可广泛应用于地图绘制、城市规划、灾害监测、资源勘探及环境变化观测等多个领域,为全球地理信息获取与科研研究提供了高质量的遥感数据支撑。

基本信息
目录编号:
41773
目录名称:
SKYSAT C2
国际标识:
2016-058D
轨道中心:
EARTH
卫星名称:
SKYSAT C2
卫星全名:
--
卫星状态:
在轨 (已飞行3647 天)
发射日期:
2016-09-16 UTC
国别 :
美国 (US)
星等 :
--
该卫星已列入 空间交会检测服务 Space Conjunction Data Service (SCDS) ,当前飞行风险评估等级: 无高风险
轨道信息
数据来源 国际轨道数据
星历时间: 2026-09-10T22:32:44+0800
17小时前
查看轨道信息
半长轴: 6813.064km
偏心率: 0.0005071
轨道倾角: 97.015°
近地点辐角 96.370°
升交点赤经 272.580°
平近点角 263.812°
近地点: 431.472km
远地点: 438.382km
周期: 93.277分钟
每日圈数: 15.437931
详细信息
使用方式:
暂无
2D轨道图
3D轨道图
轨道高度分析图
轨道倾角分析图
轨道综合分析图
查看轨道综合分析图
与全量物体交会距离演化趋势
与全量物体交会风险概率演化趋势